User: anonymous   Login
Location: Dompnac
(44.5644°N, 4.1026°E)
Time: 06:33:19
(UTC+00:00)
Language:

SJ-6B - Orbit

View from above orbital plane
View from above orbital plane
View from above satellite
View from above satellite

Ground track
Ground track

The orbit data is extracted from the following two-line orbital elements,

1 28415U 04035C   21134.70584972  .00000040  00000-0  69649-5 0  9998
2 28415  97.5680 177.8029 0049870 303.5153  56.1315 15.07105803913520
Epoch (UTC): 14 May 2021 16:56:25
Eccentricity: 0.0049870
inclination: 97.5680°
perigee height: 510 km
apogee height: 579 km
right ascension of ascending node: 177.8029°
argument of perigee: 303.5153°
revolutions per day: 15.07105803
mean anomaly at epoch: 56.1315°
orbit number at epoch: 91352

The dashed part of the orbit path shows where the satellite is in the earth's shadow,  

DLR